Weather in Kopor'ye

Russia / Saint-Petersburg and Leningrad Oblast     59°42′15″N   29°02′55″E
temp.,
°C
wind,
m/s
gust,
m/s
humid.,
%
clouds,
%
prec.,
mm/h
press.,
hPa
HPBL,
m
28 september, tue
tue2800:00+6ese24920 0.0 103280
03:00+5se22931 0.0 103261
06:00+5ese22940 0.0 103360
09:00+8ese25840 0.0 1033173
12:00+12ese34620 0.0 1033827
15:00+13ese345650 0.0 10331035
18:00+12se356297 0.0 1034215
21:00+10se2568100 0.0 1035166
29 september, wed
wed2900:00+9sse2573100 0.0 1036207
03:00+9sse2567100 0.0 1036220
06:00+9sse2466100 0.0 1036314
09:00+9sse2468100 0.0 1036177
12:00+11s235955 0.0 1036848
15:00+13sse135333 0.0 10351104
18:00+11ese12667 0.0 103432
21:00+7sse35765 0.0 103497
30 september, thu
thu3000:00+6sse36815 0.0 1035117
03:00+5sse36865 0.0 1035120
06:00+4sse37895 0.0 1034140
09:00+6sse38755 0.0 1034226
12:00+11sse46535 0.0 1034722
15:00+13sse46465 0.0 1032846
18:00+10sse36595 0.0 1031170
21:00+7sse411725 0.0 1031272
1 october, fri
fri100:00+6sse410775 0.0 1031243
03:00+6sse410835 0.0 1031214
06:00+6s410865 0.0 1030231
09:00+7s411796 0.0 1030301
12:00+10ssw4976100 0.0 1030471
15:00+10ssw3776100 0.0 1030419
18:00+9s378267 0.0 1029363
21:00+7s389356 0.0 1030216
2 october, sat
sat200:00+6s389364 0.0 1029182
03:00+8s378672 0.0 1029241
06:00+6s389379 0.0 1028183
09:00+8s498019 0.0 1027282
12:00+12s476893 0.0 1027513
15:00+12s477021 0.0 1026658
18:00+12sse38685 0.0 1025245
21:00+10s512755 0.0 1025430